Time,TemperatureF,DewpointF,PressureIn,WindDirection,WindDirectionDegrees,WindSpeedMPH,WindSpeedGustMPH,Humidity,HourlyPrecipIn,Conditions,Clouds,dailyrainin,SoftwareType,DateUTC
2013-02-18 00:00:00,15.6,2.6,29.66,WNW,285,5.0,9.0,56,0.00,RA,,0.00,WeatherDisplay:10.37,2013-02-18 05:00:00,
2013-02-18 00:05:00,15.4,2.5,29.66,West,268,3.0,8.0,56,0.00,RA,,0.00,WeatherDisplay:10.37,2013-02-18 05:05:00,
2013-02-18 00:10:00,15.3,2.7,29.66,West,277,6.0,12.0,57,0.00,OVC,,0.00,WeatherDisplay:10.37,2013-02-18 05:10:00,
2013-02-18 00:15:00,15.2,2.6,29.66,West,268,3.0,10.0,57,0.00,OVC,,0.00,WeatherDisplay:10.37,2013-02-18 05:15:00,
2013-02-18 00:20:00,15.0,2.1,29.66,West,272,2.0,10.0,56,0.00,OVC,,0.00,WeatherDisplay:10.37,2013-02-18 05:20:00,
2013-02-18 00:25:00,15.0,2.5,29.66,WNW,302,5.0,13.0,57,0.00,OVC,,0.00,WeatherDisplay:10.37,2013-02-18 05:25:00,
2013-02-18 00:30:00,14.9,2.4,29.67,West,274,1.0,9.0,57,0.00,OVC,,0.00,WeatherDisplay:10.37,2013-02-18 05:30:00,
2013-02-18 00:35:00,14.8,2.3,29.67,WSW,258,5.0,12.0,57,0.00,OVC,,0.00,WeatherDisplay:10.37,2013-02-18 05:35:00,
2013-02-18 00:40:00,14.8,2.3,29.67,West,276,1.0,9.0,57,0.00,OVC,,0.00,WeatherDisplay:10.37,2013-02-18 05:40:00,
2013-02-18 00:45:00,14.7,2.6,29.67,WNW,292,3.0,12.0,58,0.00,OVC,,0.00,WeatherDisplay:10.37,2013-02-18 05:45:00,
2013-02-18 00:50:00,14.6,2.5,29.67,WNW,286,5.0,12.0,58,0.00,OVC,,0.00,WeatherDisplay:10.37,2013-02-18 05:50:00,
2013-02-18 00:55:00,14.6,2.1,29.67,WNW,287,3.0,12.0,57,0.00,OVC,,0.00,WeatherDisplay:10.37,2013-02-18 05:55:00,
2013-02-18 01:00:00,14.5,2.0,29.68,WNW,288,6.0,12.0,57,0.00,OVC,,0.00,WeatherDisplay:10.37,2013-02-18 06:00:00,
2013-02-18 01:05:00,14.4,2.3,29.68,WNW,287,2.0,10.0,58,0.00,OVC,,0.00,WeatherDisplay:10.37,2013-02-18 06:05:00,
2013-02-18 01:10:00,14.4,1.9,29.68,West,276,5.0,10.0,57,0.00,OVC,,0.00,WeatherDisplay:10.37,2013-02-18 06:10:00,
2013-02-18 01:15:00,14.3,2.2,29.68,West,279,6.0,12.0,58,0.00,OVC,,0.00,WeatherDisplay:10.37,2013-02-18 06:15:00,
2013-02-18 01:20:00,14.2,2.1,29.68,WNW,289,1.0,6.0,58,0.00,BKN,,0.00,WeatherDisplay:10.37,2013-02-18 06:20:00,
2013-02-18 01:25:00,14.2,2.1,29.68,West,277,5.0,14.0,58,0.00,BKN,,0.00,WeatherDisplay:10.37,2013-02-18 06:25:00,
2013-02-18 01:30:00,14.2,2.1,29.69,WNW,292,1.0,9.0,58,0.00,BKN,,0.00,WeatherDisplay:10.37,2013-02-18 06:30:00,
2013-02-18 01:35:00,14.1,2.0,29.69,WNW,288,6.0,12.0,58,0.00,BKN,,0.00,WeatherDisplay:10.37,2013-02-18 06:35:00,
2013-02-18 01:40:00,14.1,2.1,29.70,WNW,292,3.0,9.0,58,0.00,BKN,,0.00,WeatherDisplay:10.37,2013-02-18 06:40:00,
2013-02-18 01:45:00,14.1,2.0,29.70,West,281,6.0,13.0,58,0.00,BKN,,0.00,WeatherDisplay:10.37,2013-02-18 06:45:00,
2013-02-18 01:50:00,14.1,2.0,29.70,WNW,292,1.0,12.0,58,0.00,BKN,,0.00,WeatherDisplay:10.37,2013-02-18 06:50:00,
2013-02-18 01:55:00,14.1,2.0,29.70,WNW,286,6.0,15.0,58,0.00,BKN,,0.00,WeatherDisplay:10.37,2013-02-18 06:55:00,
2013-02-18 02:00:00,14.1,2.0,29.70,WNW,294,5.0,14.0,58,0.00,BKN,,0.00,WeatherDisplay:10.37,2013-02-18 07:00:00,
2013-02-18 02:05:00,14.1,2.0,29.71,WNW,293,5.0,10.0,58,0.00,BKN,,0.00,WeatherDisplay:10.37,2013-02-18 07:05:00,
2013-02-18 02:10:00,14.0,2.0,29.71,WNW,288,2.0,14.0,58,0.00,BKN,,0.00,WeatherDisplay:10.37,2013-02-18 07:10:00,
2013-02-18 02:15:00,14.0,1.9,29.71,WNW,285,5.0,12.0,58,0.00,BKN,,0.00,WeatherDisplay:10.37,2013-02-18 07:15:00,
2013-02-18 02:20:00,14.0,1.9,29.71,WNW,286,3.0,10.0,58,0.00,BKN,,0.00,WeatherDisplay:10.37,2013-02-18 07:20:00,
2013-02-18 02:25:00,13.9,1.9,29.71,WNW,290,3.0,10.0,58,0.00,BKN,,0.00,WeatherDisplay:10.37,2013-02-18 07:25:00,
2013-02-18 02:30:00,13.9,1.8,29.70,WNW,299,5.0,12.0,58,0.00,BKN,,0.00,WeatherDisplay:10.37,2013-02-18 07:30:00,
2013-02-18 02:35:00,13.9,2.2,29.71,WNW,289,2.0,9.0,59,0.00,BKN,,0.00,WeatherDisplay:10.37,2013-02-18 07:35:00,
2013-02-18 02:40:00,13.8,1.7,29.72,WNW,287,5.0,12.0,58,0.00,BKN,,0.00,WeatherDisplay:10.37,2013-02-18 07:40:00,
2013-02-18 02:45:00,13.8,1.7,29.72,WNW,287,6.0,12.0,58,0.00,BKN,,0.00,WeatherDisplay:10.37,2013-02-18 07:45:00,
2013-02-18 02:50:00,13.8,2.1,29.72,West,278,2.0,10.0,59,0.00,BKN,,0.00,WeatherDisplay:10.37,2013-02-18 07:50:00,
2013-02-18 02:55:00,13.7,2.0,29.73,WNW,285,3.0,12.0,59,0.00,BKN,,0.00,WeatherDisplay:10.37,2013-02-18 07:55:00,
2013-02-18 03:00:00,13.6,2.0,29.73,WNW,291,3.0,12.0,59,0.00,BKN,,0.00,WeatherDisplay:10.37,2013-02-18 08:00:00,
2013-02-18 03:05:00,13.6,1.9,29.73,WNW,289,2.0,12.0,59,0.00,BKN,,0.00,WeatherDisplay:10.37,2013-02-18 08:05:00,
2013-02-18 03:10:00,13.6,1.9,29.73,West,277,2.0,8.0,59,0.00,BKN,,0.00,WeatherDisplay:10.37,2013-02-18 08:10:00,
2013-02-18 03:15:00,13.6,1.5,29.74,West,276,7.0,17.0,58,0.00,BKN,,0.00,WeatherDisplay:10.37,2013-02-18 08:15:00,
2013-02-18 03:20:00,13.6,1.5,29.74,WNW,295,6.0,13.0,58,0.00,CLR,,0.00,WeatherDisplay:10.37,2013-02-18 08:20:00,
2013-02-18 03:25:00,13.7,1.6,29.74,WNW,302,2.0,12.0,58,0.00,CLR,,0.00,WeatherDisplay:10.37,2013-02-18 08:25:00,
2013-02-18 03:30:00,13.6,1.5,29.74,WNW,292,5.0,13.0,58,0.00,CLR,,0.00,WeatherDisplay:10.37,2013-02-18 08:30:00,
2013-02-18 03:35:00,13.6,1.5,29.74,WNW,283,5.0,12.0,58,0.00,CLR,,0.00,WeatherDisplay:10.37,2013-02-18 08:35:00,
2013-02-18 03:40:00,13.6,1.5,29.75,West,277,6.0,10.0,58,0.00,CLR,,0.00,WeatherDisplay:10.37,2013-02-18 08:40:00,
2013-02-18 03:45:00,13.5,1.4,29.75,West,273,3.0,9.0,58,0.00,CLR,,0.00,WeatherDisplay:10.37,2013-02-18 08:45:00,
2013-02-18 03:50:00,13.4,1.7,29.75,West,276,2.0,12.0,59,0.00,CLR,,0.00,WeatherDisplay:10.37,2013-02-18 08:50:00,
2013-02-18 03:55:00,13.4,1.4,29.75,WNW,288,0.0,14.0,58,0.00,CLR,,0.00,WeatherDisplay:10.37,2013-02-18 08:55:00,
2013-02-18 04:00:00,13.3,1.6,29.76,WNW,294,2.0,12.0,59,0.00,CLR,,0.00,WeatherDisplay:10.37,2013-02-18 09:00:00,
2013-02-18 04:05:00,13.2,1.2,29.76,WNW,292,0.0,6.0,58,0.00,CLR,,0.00,WeatherDisplay:10.37,2013-02-18 09:05:00,
2013-02-18 04:10:00,13.2,1.2,29.77,West,261,3.0,15.0,58,0.00,CLR,,0.00,WeatherDisplay:10.37,2013-02-18 09:10:00,
2013-02-18 04:15:00,13.2,1.5,29.76,West,278,5.0,10.0,59,0.00,CLR,,0.00,WeatherDisplay:10.37,2013-02-18 09:15:00,
2013-02-18 04:20:00,13.2,1.5,29.77,WNW,297,3.0,9.0,59,0.00,CLR,,0.00,WeatherDisplay:10.37,2013-02-18 09:20:00,
2013-02-18 04:25:00,13.2,1.5,29.78,WNW,285,5.0,10.0,59,0.00,CLR,,0.00,WeatherDisplay:10.37,2013-02-18 09:25:00,
2013-02-18 04:30:00,13.1,1.8,29.78,WNW,296,1.0,10.0,60,0.00,CLR,,0.00,WeatherDisplay:10.37,2013-02-18 09:30:00,
2013-02-18 04:35:00,13.1,1.5,29.78,WNW,302,7.0,12.0,59,0.00,CLR,,0.00,WeatherDisplay:10.37,2013-02-18 09:35:00,
2013-02-18 04:40:00,13.2,1.5,29.78,WNW,284,2.0,10.0,59,0.00,CLR,,0.00,WeatherDisplay:10.37,2013-02-18 09:40:00,
2013-02-18 04:45:00,13.3,1.6,29.78,West,275,2.0,9.0,59,0.00,CLR,,0.00,WeatherDisplay:10.37,2013-02-18 09:45:00,
2013-02-18 04:50:00,13.3,1.6,29.79,WNW,292,3.0,7.0,59,0.00,CLR,,0.00,WeatherDisplay:10.37,2013-02-18 09:50:00,
2013-02-18 04:55:00,13.3,1.6,29.79,NW,304,0.0,7.0,59,0.00,CLR,,0.00,WeatherDisplay:10.37,2013-02-18 09:55:00,
2013-02-18 05:00:00,13.3,1.6,29.79,West,279,1.0,9.0,59,0.00,CLR,,0.00,WeatherDisplay:10.37,2013-02-18 10:00:00,
2013-02-18 05:05:00,13.4,1.4,29.79,WNW,285,5.0,12.0,58,0.00,CLR,,0.00,WeatherDisplay:10.37,2013-02-18 10:05:00,
2013-02-18 05:10:00,13.4,1.4,29.80,WNW,294,2.0,10.0,58,0.00,CLR,,0.00,WeatherDisplay:10.37,2013-02-18 10:10:00,
2013-02-18 05:15:00,13.4,1.4,29.80,WNW,294,2.0,12.0,58,0.00,CLR,,0.00,WeatherDisplay:10.37,2013-02-18 10:15:00,
2013-02-18 05:20:00,13.4,1.4,29.80,WNW,294,7.0,13.0,58,0.00,CLR,,0.00,WeatherDisplay:10.37,2013-02-18 10:20:00,
2013-02-18 05:25:00,13.5,1.8,29.81,WNW,295,5.0,13.0,59,0.00,CLR,,0.00,WeatherDisplay:10.37,2013-02-18 10:25:00,
2013-02-18 05:30:00,13.5,1.4,29.81,WNW,300,2.0,16.0,58,0.00,CLR,,0.00,WeatherDisplay:10.37,2013-02-18 10:30:00,
2013-02-18 05:35:00,13.5,1.8,29.81,NW,304,3.0,10.0,59,0.00,CLR,,0.00,WeatherDisplay:10.37,2013-02-18 10:35:00,
2013-02-18 05:40:00,13.4,1.4,29.82,WNW,293,5.0,13.0,58,0.00,CLR,,0.00,WeatherDisplay:10.37,2013-02-18 10:40:00,
2013-02-18 05:45:00,13.3,1.6,29.82,WNW,293,6.0,17.0,59,0.00,CLR,,0.00,WeatherDisplay:10.37,2013-02-18 10:45:00,
2013-02-18 05:50:00,13.3,1.6,29.82,WNW,293,1.0,9.0,59,0.00,CLR,,0.00,WeatherDisplay:10.37,2013-02-18 10:50:00,
2013-02-18 06:00:00,13.3,1.6,29.83,WNW,301,7.0,12.0,59,0.00,CLR,,0.00,WeatherDisplay:10.37,2013-02-18 11:00:00,
2013-02-18 06:05:00,13.4,1.3,29.83,WNW,300,3.0,12.0,58,0.00,CLR,,0.00,WeatherDisplay:10.37,2013-02-18 11:05:00,
2013-02-18 06:10:00,13.3,1.6,29.84,WNW,289,2.0,8.0,59,0.00,CLR,,0.00,WeatherDisplay:10.37,2013-02-18 11:10:00,
2013-02-18 06:15:00,13.2,1.5,29.84,WNW,284,1.0,9.0,59,0.00,CLR,,0.00,WeatherDisplay:10.37,2013-02-18 11:15:00,
2013-02-18 06:20:00,13.1,1.4,29.84,West,277,3.0,12.0,59,0.00,CLR,,0.00,WeatherDisplay:10.37,2013-02-18 11:20:00,
2013-02-18 06:25:00,13.1,1.1,29.85,West,279,3.0,12.0,58,0.00,CLR,,0.00,WeatherDisplay:10.37,2013-02-18 11:25:00,
2013-02-18 06:30:00,13.0,1.0,29.85,West,281,2.0,8.0,58,0.00,CLR,,0.00,WeatherDisplay:10.37,2013-02-18 11:30:00,
2013-02-18 06:35:00,13.0,1.0,29.85,WNW,296,5.0,12.0,58,0.00,CLR,,0.00,WeatherDisplay:10.37,2013-02-18 11:35:00,
2013-02-18 06:40:00,13.0,1.0,29.85,WNW,299,5.0,10.0,58,0.00,CLR,,0.00,WeatherDisplay:10.37,2013-02-18 11:40:00,
2013-02-18 06:45:00,12.9,0.9,29.86,WNW,292,2.0,7.0,58,0.00,CLR,,0.00,WeatherDisplay:10.37,2013-02-18 11:45:00,
2013-02-18 06:50:00,12.9,0.9,29.86,WNW,285,5.0,12.0,58,0.00,CLR,,0.00,WeatherDisplay:10.37,2013-02-18 11:50:00,
2013-02-18 06:55:00,12.9,0.9,29.87,West,279,2.0,7.0,58,0.00,CLR,,0.00,WeatherDisplay:10.37,2013-02-18 11:55:00,
2013-02-18 07:05:00,12.9,0.9,29.87,WNW,283,2.0,9.0,58,0.00,CLR,,0.00,WeatherDisplay:10.37,2013-02-18 12:05:00,
2013-02-18 07:10:00,13.0,1.0,29.87,WNW,285,5.0,8.0,58,0.00,CLR,,0.00,WeatherDisplay:10.37,2013-02-18 12:10:00,
2013-02-18 07:15:00,13.0,1.0,29.87,West,281,3.0,7.0,58,0.00,CLR,,0.00,WeatherDisplay:10.37,2013-02-18 12:15:00,
2013-02-18 07:20:00,13.1,1.1,29.88,West,268,3.0,12.0,58,0.00,CLR,,0.00,WeatherDisplay:10.37,2013-02-18 12:20:00,
2013-02-18 07:25:00,13.1,1.1,29.88,WNW,291,6.0,12.0,58,0.00,CLR,,0.00,WeatherDisplay:10.37,2013-02-18 12:25:00,
2013-02-18 07:30:00,13.2,1.2,29.88,WNW,291,6.0,12.0,58,0.00,CLR,,0.00,WeatherDisplay:10.37,2013-02-18 12:30:00,
2013-02-18 07:35:00,13.4,1.0,29.88,WNW,282,5.0,13.0,57,0.00,CLR,,0.00,WeatherDisplay:10.37,2013-02-18 12:35:00,
2013-02-18 07:40:00,13.6,1.2,29.88,WNW,286,3.0,12.0,57,0.00,CLR,,0.00,WeatherDisplay:10.37,2013-02-18 12:40:00,
2013-02-18 07:45:00,13.8,1.4,29.89,West,271,2.0,9.0,57,0.00,CLR,,0.00,WeatherDisplay:10.37,2013-02-18 12:45:00,
2013-02-18 07:50:00,13.9,1.1,29.89,West,270,6.0,12.0,56,0.00,CLR,,0.00,WeatherDisplay:10.37,2013-02-18 12:50:00,
2013-02-18 07:55:00,14.1,1.3,29.90,West,269,3.0,8.0,56,0.00,CLR,,0.00,WeatherDisplay:10.37,2013-02-18 12:55:00,
2013-02-18 08:00:00,14.4,1.2,29.90,WSW,254,2.0,9.0,55,0.00,CLR,,0.00,WeatherDisplay:10.37,2013-02-18 13:00:00,
2013-02-18 08:05:00,14.5,1.6,29.91,West,264,3.0,10.0,56,0.00,CLR,,0.00,WeatherDisplay:10.37,2013-02-18 13:05:00,
2013-02-18 08:10:00,14.7,1.1,29.90,WNW,282,5.0,14.0,54,0.00,CLR,,0.00,WeatherDisplay:10.37,2013-02-18 13:10:00,
2013-02-18 08:15:00,15.0,1.3,29.90,West,279,2.0,12.0,54,0.00,CLR,,0.00,WeatherDisplay:10.37,2013-02-18 13:15:00,
2013-02-18 08:25:00,15.3,2.0,29.91,WNW,288,5.0,12.0,55,0.00,CLR,,0.00,WeatherDisplay:10.37,2013-02-18 13:25:00,
2013-02-18 08:35:00,15.8,1.7,29.91,WNW,296,2.0,13.0,53,0.00,CLR,,0.00,WeatherDisplay:10.37,2013-02-18 13:35:00,
2013-02-18 08:40:00,16.1,1.9,29.92,WNW,301,3.0,9.0,53,0.00,CLR,,0.00,WeatherDisplay:10.37,2013-02-18 13:40:00,
2013-02-18 08:45:00,16.4,2.2,29.92,NW,309,2.0,10.0,53,0.00,CLR,,0.00,WeatherDisplay:10.37,2013-02-18 13:45:00,
2013-02-18 08:50:00,16.6,2.4,29.92,NW,304,1.0,9.0,53,0.00,CLR,,0.00,WeatherDisplay:10.37,2013-02-18 13:50:00,
2013-02-18 08:55:00,16.9,2.3,29.92,WNW,291,5.0,13.0,52,0.00,CLR,,0.00,WeatherDisplay:10.37,2013-02-18 13:55:00,
2013-02-18 09:00:00,17.1,2.5,29.92,WNW,284,8.0,17.0,52,0.00,CLR,,0.00,WeatherDisplay:10.37,2013-02-18 14:00:00,
2013-02-18 09:05:00,17.3,2.7,29.92,WNW,287,2.0,15.0,52,0.00,CLR,,0.00,WeatherDisplay:10.37,2013-02-18 14:05:00,
2013-02-18 09:10:00,17.6,2.1,29.92,WNW,288,6.0,15.0,50,0.00,CLR,,0.00,WeatherDisplay:10.37,2013-02-18 14:10:00,
2013-02-18 09:15:00,17.9,2.8,29.93,WNW,283,3.0,9.0,51,0.00,CLR,,0.00,WeatherDisplay:10.37,2013-02-18 14:15:00,
2013-02-18 09:20:00,18.2,2.6,29.92,WNW,301,3.0,10.0,50,0.00,CLR,,0.00,WeatherDisplay:10.37,2013-02-18 14:20:00,
2013-02-18 09:25:00,18.5,2.5,29.93,WNW,294,7.0,12.0,49,0.00,CLR,,0.00,WeatherDisplay:10.37,2013-02-18 14:25:00,
2013-02-18 09:30:00,18.9,2.9,29.93,WNW,297,7.0,13.0,49,0.00,CLR,,0.00,WeatherDisplay:10.37,2013-02-18 14:30:00,
2013-02-18 09:35:00,19.3,2.8,29.93,WNW,288,5.0,13.0,48,0.00,CLR,,0.00,WeatherDisplay:10.37,2013-02-18 14:35:00,
2013-02-18 09:40:00,19.7,3.2,29.93,WNW,286,3.0,10.0,48,0.00,CLR,,0.00,WeatherDisplay:10.37,2013-02-18 14:40:00,
2013-02-18 09:45:00,20.0,3.0,29.94,WNW,292,5.0,12.0,47,0.00,CLR,,0.00,WeatherDisplay:10.37,2013-02-18 14:45:00,
2013-02-18 09:50:00,20.1,2.6,29.93,West,278,5.0,14.0,46,0.00,CLR,,0.00,WeatherDisplay:10.37,2013-02-18 14:50:00,
2013-02-18 09:55:00,20.3,2.8,29.94,WNW,282,6.0,12.0,46,0.00,CLR,,0.00,WeatherDisplay:10.37,2013-02-18 14:55:00,
2013-02-18 10:00:00,20.6,2.6,29.93,WNW,299,3.0,13.0,45,0.00,CLR,,0.00,WeatherDisplay:10.37,2013-02-18 15:00:00,
2013-02-18 10:05:00,21.0,3.5,29.94,WNW,297,6.0,12.0,46,0.00,CLR,,0.00,WeatherDisplay:10.37,2013-02-18 15:05:00,
2013-02-18 10:10:00,21.3,2.8,29.93,WNW,282,5.0,12.0,44,0.00,CLR,,0.00,WeatherDisplay:10.37,2013-02-18 15:10:00,
2013-02-18 10:15:00,21.6,2.5,29.93,West,274,2.0,10.0,43,0.00,CLR,,0.00,WeatherDisplay:10.37,2013-02-18 15:15:00,
2013-02-18 10:20:00,21.8,2.2,29.94,West,270,6.0,10.0,42,0.00,CLR,,0.00,WeatherDisplay:10.37,2013-02-18 15:20:00,
2013-02-18 10:25:00,21.8,1.7,29.94,West,273,2.0,13.0,41,0.00,CLR,,0.00,WeatherDisplay:10.37,2013-02-18 15:25:00,
2013-02-18 10:30:00,21.9,1.8,29.94,West,281,6.0,13.0,41,0.00,CLR,,0.00,WeatherDisplay:10.37,2013-02-18 15:30:00,
2013-02-18 10:35:00,22.0,1.3,29.94,WNW,297,6.0,14.0,40,0.00,CLR,,0.00,WeatherDisplay:10.37,2013-02-18 15:35:00,
2013-02-18 10:40:00,22.1,0.9,29.95,WNW,299,5.0,15.0,39,0.00,CLR,,0.00,WeatherDisplay:10.37,2013-02-18 15:40:00,
2013-02-18 10:45:00,22.3,2.1,29.95,WNW,291,2.0,9.0,41,0.00,CLR,,0.00,WeatherDisplay:10.37,2013-02-18 15:45:00,
2013-02-18 10:55:00,23.0,1.1,29.95,WNW,286,5.0,12.0,38,0.00,CLR,,0.00,WeatherDisplay:10.37,2013-02-18 15:55:00,
2013-02-18 11:00:00,23.2,0.2,29.95,West,276,6.0,12.0,36,0.00,CLR,,0.00,WeatherDisplay:10.37,2013-02-18 16:00:00,
2013-02-18 11:05:00,23.5,1.6,29.95,WNW,298,3.0,12.0,38,0.00,CLR,,0.00,WeatherDisplay:10.37,2013-02-18 16:05:00,
2013-02-18 11:15:00,24.3,1.1,29.95,WNW,294,3.0,12.0,36,0.00,CLR,,0.00,WeatherDisplay:10.37,2013-02-18 16:15:00,
2013-02-18 11:25:00,25.0,2.4,29.94,WNW,301,2.0,7.0,37,0.00,CLR,,0.00,WeatherDisplay:10.37,2013-02-18 16:25:00,
2013-02-18 11:30:00,25.4,0.9,29.94,West,279,6.0,12.0,34,0.00,CLR,,0.00,WeatherDisplay:10.37,2013-02-18 16:30:00,
2013-02-18 11:35:00,25.6,-0.2,29.95,WNW,291,6.0,10.0,32,0.00,CLR,,0.00,WeatherDisplay:10.37,2013-02-18 16:35:00,
2013-02-18 11:40:00,25.8,1.2,29.95,West,274,5.0,10.0,34,0.00,CLR,,0.00,WeatherDisplay:10.37,2013-02-18 16:40:00,
2013-02-18 11:45:00,26.0,0.8,29.95,SW,235,6.0,10.0,33,0.00,CLR,,0.00,WeatherDisplay:10.37,2013-02-18 16:45:00,
2013-02-18 11:50:00,26.1,0.2,29.95,West,270,6.0,13.0,32,0.00,CLR,,0.00,WeatherDisplay:10.37,2013-02-18 16:50:00,
2013-02-18 11:55:00,26.3,0.4,29.95,WNW,287,3.0,10.0,32,0.00,CLR,,0.00,WeatherDisplay:10.37,2013-02-18 16:55:00,
2013-02-18 12:00:00,26.4,-0.2,29.95,West,272,3.0,12.0,31,0.00,CLR,,0.00,WeatherDisplay:10.37,2013-02-18 17:00:00,
2013-02-18 12:05:00,26.5,-0.1,29.95,West,271,3.0,15.0,31,0.00,CLR,,0.00,WeatherDisplay:10.37,2013-02-18 17:05:00,
2013-02-18 12:10:00,26.6,0.7,29.95,West,279,1.0,9.0,32,0.00,CLR,,0.00,WeatherDisplay:10.37,2013-02-18 17:10:00,
2013-02-18 12:20:00,27.1,0.4,29.95,West,274,5.0,12.0,31,0.00,CLR,,0.00,WeatherDisplay:10.37,2013-02-18 17:20:00,
2013-02-18 12:25:00,27.3,0.6,29.95,West,276,3.0,8.0,31,0.00,CLR,,0.00,WeatherDisplay:10.37,2013-02-18 17:25:00,
2013-02-18 12:30:00,27.5,0.1,29.96,West,274,5.0,10.0,30,0.00,CLR,,0.00,WeatherDisplay:10.37,2013-02-18 17:30:00,
2013-02-18 12:40:00,28.2,1.4,29.96,NW,312,3.0,14.0,31,0.00,CLR,,0.00,WeatherDisplay:10.37,2013-02-18 17:40:00,
2013-02-18 12:45:00,28.4,0.1,29.95,NW,305,6.0,15.0,29,0.00,CLR,,0.00,WeatherDisplay:10.37,2013-02-18 17:45:00,
2013-02-18 12:50:00,28.7,1.8,29.96,WNW,297,6.0,10.0,31,0.00,CLR,,0.00,WeatherDisplay:10.37,2013-02-18 17:50:00,
2013-02-18 12:55:00,29.0,0.7,29.95,WNW,300,3.0,10.0,29,0.00,CLR,,0.00,WeatherDisplay:10.37,2013-02-18 17:55:00,
2013-02-18 13:00:00,29.2,0.8,29.95,West,276,2.0,10.0,29,0.00,CLR,,0.00,WeatherDisplay:10.37,2013-02-18 18:00:00,
2013-02-18 13:10:00,30.1,3.7,29.95,West,264,0.0,5.0,32,0.00,CLR,,0.00,WeatherDisplay:10.37,2013-02-18 18:10:00,
2013-02-18 13:20:00,30.6,1.3,29.95,WSW,243,3.0,20.0,28,0.00,CLR,,0.00,WeatherDisplay:10.37,2013-02-18 18:20:00,
2013-02-18 13:30:00,29.8,1.4,29.96,West,266,3.0,14.0,29,0.00,CLR,,0.00,WeatherDisplay:10.37,2013-02-18 18:30:00,
2013-02-18 13:35:00,29.8,0.6,29.97,WSW,255,5.0,20.0,28,0.00,CLR,,0.00,WeatherDisplay:10.37,2013-02-18 18:35:00,
2013-02-18 13:45:00,29.4,1.0,29.97,West,260,6.0,14.0,29,0.00,CLR,,0.00,WeatherDisplay:10.37,2013-02-18 18:45:00,
2013-02-18 13:50:00,29.1,0.7,29.97,West,270,3.0,12.0,29,0.00,CLR,,0.00,WeatherDisplay:10.37,2013-02-18 18:50:00,
2013-02-18 13:55:00,28.8,1.2,29.97,West,268,6.0,13.0,30,0.00,CLR,,0.00,WeatherDisplay:10.37,2013-02-18 18:55:00,
2013-02-18 14:00:00,28.6,1.0,29.98,West,263,3.0,13.0,30,0.00,CLR,,0.00,WeatherDisplay:10.37,2013-02-18 19:00:00,
2013-02-18 14:10:00,28.4,0.1,29.97,West,270,3.0,10.0,29,0.00,CLR,,0.00,WeatherDisplay:10.37,2013-02-18 19:10:00,
2013-02-18 14:15:00,28.4,1.6,29.98,WNW,282,6.0,10.0,31,0.00,CLR,,0.00,WeatherDisplay:10.37,2013-02-18 19:15:00,
2013-02-18 14:20:00,28.4,1.6,29.97,West,279,5.0,12.0,31,0.00,CLR,,0.00,WeatherDisplay:10.37,2013-02-18 19:20:00,
2013-02-18 14:30:00,28.5,0.9,29.98,WNW,287,6.0,12.0,30,0.00,CLR,,0.00,WeatherDisplay:10.37,2013-02-18 19:30:00,
2013-02-18 14:40:00,28.5,0.2,29.98,West,270,3.0,8.0,29,0.00,CLR,,0.00,WeatherDisplay:10.37,2013-02-18 19:40:00,
2013-02-18 14:45:00,28.6,1.0,29.98,West,277,3.0,12.0,30,0.00,CLR,,0.00,WeatherDisplay:10.37,2013-02-18 19:45:00,
2013-02-18 14:50:00,28.6,1.0,29.98,West,271,6.0,12.0,30,0.00,CLR,,0.00,WeatherDisplay:10.37,2013-02-18 19:50:00,
2013-02-18 14:55:00,28.7,1.1,29.98,West,277,3.0,10.0,30,0.00,CLR,,0.00,WeatherDisplay:10.37,2013-02-18 19:55:00,
2013-02-18 15:00:00,28.8,1.2,29.98,West,275,5.0,12.0,30,0.00,CLR,,0.00,WeatherDisplay:10.37,2013-02-18 20:00:00,
2013-02-18 15:05:00,29.0,0.7,29.98,West,276,5.0,14.0,29,0.00,CLR,,0.00,WeatherDisplay:10.37,2013-02-18 20:05:00,
2013-02-18 15:10:00,29.2,1.6,29.98,West,272,2.0,8.0,30,0.00,CLR,,0.00,WeatherDisplay:10.37,2013-02-18 20:10:00,
2013-02-18 15:20:00,29.3,0.2,29.99,West,274,5.0,14.0,28,0.00,CLR,,0.00,WeatherDisplay:10.37,2013-02-18 20:20:00,
2013-02-18 15:25:00,29.1,1.4,29.99,WNW,290,2.0,10.0,30,0.00,CLR,,0.00,WeatherDisplay:10.37,2013-02-18 20:25:00,
2013-02-18 15:30:00,28.7,-0.4,29.99,West,281,5.0,12.0,28,0.00,CLR,,0.00,WeatherDisplay:10.37,2013-02-18 20:30:00,
2013-02-18 15:35:00,28.5,0.9,29.99,West,273,2.0,10.0,30,0.00,CLR,,0.00,WeatherDisplay:10.37,2013-02-18 20:35:00,
2013-02-18 15:40:00,28.4,-0.6,29.99,WNW,285,5.0,13.0,28,0.00,CLR,,0.00,WeatherDisplay:10.37,2013-02-18 20:40:00,
2013-02-18 15:45:00,28.4,0.1,29.99,WNW,291,3.0,7.0,29,0.00,CLR,,0.00,WeatherDisplay:10.37,2013-02-18 20:45:00,
2013-02-18 15:50:00,28.4,0.9,30.00,WNW,290,3.0,10.0,30,0.00,CLR,,0.00,WeatherDisplay:10.37,2013-02-18 20:50:00,
2013-02-18 16:00:00,28.3,0.1,30.00,WNW,287,2.0,9.0,29,0.00,CLR,,0.00,WeatherDisplay:10.37,2013-02-18 21:00:00,
2013-02-18 16:05:00,28.3,0.0,30.01,WNW,282,3.0,10.0,29,0.00,CLR,,0.00,WeatherDisplay:10.37,2013-02-18 21:05:00,
2013-02-18 16:15:00,28.5,0.2,30.01,WNW,285,0.0,5.0,29,0.00,CLR,,0.00,WeatherDisplay:10.37,2013-02-18 21:15:00,
2013-02-18 16:20:00,28.6,1.0,30.01,WNW,295,3.0,6.0,30,0.00,CLR,,0.00,WeatherDisplay:10.37,2013-02-18 21:20:00,
2013-02-18 16:25:00,28.6,0.3,30.02,WNW,288,5.0,7.0,29,0.00,CLR,,0.00,WeatherDisplay:10.37,2013-02-18 21:25:00,
2013-02-18 16:35:00,28.4,0.1,30.02,WSW,254,2.0,7.0,29,0.00,CLR,,0.00,WeatherDisplay:10.37,2013-02-18 21:35:00,
2013-02-18 16:40:00,28.2,-0.8,30.02,WSW,255,1.0,4.0,28,0.00,CLR,,0.00,WeatherDisplay:10.37,2013-02-18 21:40:00,
2013-02-18 16:45:00,28.0,-1.0,30.02,NW,314,2.0,14.0,28,0.00,CLR,,0.00,WeatherDisplay:10.37,2013-02-18 21:45:00,
2013-02-18 16:50:00,27.9,-1.8,30.02,WNW,297,3.0,8.0,27,0.00,CLR,,0.00,WeatherDisplay:10.37,2013-02-18 21:50:00,
2013-02-18 16:55:00,27.8,-0.4,30.02,West,269,1.0,5.0,29,0.00,CLR,,0.00,WeatherDisplay:10.37,2013-02-18 21:55:00,
2013-02-18 17:05:00,27.7,-1.3,30.02,West,275,3.0,10.0,28,0.00,CLR,,0.00,WeatherDisplay:10.37,2013-02-18 22:05:00,
2013-02-18 17:15:00,27.4,0.0,30.02,West,273,2.0,5.0,30,0.00,CLR,,0.00,WeatherDisplay:10.37,2013-02-18 22:15:00,
2013-02-18 17:20:00,27.2,-1.7,30.03,WNW,293,3.0,12.0,28,0.00,CLR,,0.00,WeatherDisplay:10.37,2013-02-18 22:20:00,
2013-02-18 17:25:00,27.2,-0.9,30.03,WNW,302,3.0,6.0,29,0.00,CLR,,0.00,WeatherDisplay:10.37,2013-02-18 22:25:00,
2013-02-18 17:35:00,27.0,-1.8,30.03,West,280,1.0,8.0,28,0.00,CLR,,0.00,WeatherDisplay:10.37,2013-02-18 22:35:00,
2013-02-18 17:45:00,26.9,0.2,30.03,WNW,282,1.0,7.0,31,0.00,CLR,,0.00,WeatherDisplay:10.37,2013-02-18 22:45:00,
2013-02-18 17:50:00,26.8,-1.3,30.03,West,281,3.0,7.0,29,0.00,CLR,,0.00,WeatherDisplay:10.37,2013-02-18 22:50:00,
2013-02-18 18:00:00,26.6,-1.4,30.04,WNW,286,1.0,6.0,29,0.00,CLR,,0.00,WeatherDisplay:10.37,2013-02-18 23:00:00,
2013-02-18 18:05:00,26.6,-0.7,30.04,West,274,1.0,5.0,30,0.00,CLR,,0.00,WeatherDisplay:10.37,2013-02-18 23:05:00,
2013-02-18 18:10:00,26.6,0.0,30.04,West,275,1.0,5.0,31,0.00,CLR,,0.00,WeatherDisplay:10.37,2013-02-18 23:10:00,
2013-02-18 18:15:00,26.6,-0.7,30.05,WNW,303,1.0,4.0,30,0.00,CLR,,0.00,WeatherDisplay:10.37,2013-02-18 23:15:00,
2013-02-18 18:20:00,26.6,-0.7,30.05,NW,311,1.0,8.0,30,0.00,CLR,,0.00,WeatherDisplay:10.37,2013-02-18 23:20:00,
2013-02-18 18:25:00,26.6,-1.4,30.05,NW,306,1.0,8.0,29,0.00,CLR,,0.00,WeatherDisplay:10.37,2013-02-18 23:25:00,
2013-02-18 18:30:00,26.6,-0.7,30.05,NNW,328,0.0,3.0,30,0.00,CLR,,0.00,WeatherDisplay:10.37,2013-02-18 23:30:00,
2013-02-18 18:35:00,26.5,-0.8,30.05,North,359,1.0,4.0,30,0.00,CLR,,0.00,WeatherDisplay:10.37,2013-02-18 23:35:00,
2013-02-18 18:40:00,26.5,-1.5,30.06,WNW,303,0.0,6.0,29,0.00,CLR,,0.00,WeatherDisplay:10.37,2013-02-18 23:40:00,
2013-02-18 18:45:00,26.4,1.8,30.06,NW,326,0.0,0.0,34,0.00,CLR,,0.00,WeatherDisplay:10.37,2013-02-18 23:45:00,
2013-02-18 18:50:00,26.1,0.9,30.06,North,4,1.0,3.0,33,0.00,CLR,,0.00,WeatherDisplay:10.37,2013-02-18 23:50:00,
2013-02-18 18:55:00,25.7,-0.1,30.07,WNW,297,1.0,5.0,32,0.00,CLR,,0.00,WeatherDisplay:10.37,2013-02-18 23:55:00,
2013-02-18 19:05:00,25.4,2.1,30.07,SW,230,0.0,5.0,36,0.00,CLR,,0.00,WeatherDisplay:10.37,2013-02-19 00:05:00,
2013-02-18 19:10:00,25.1,1.2,30.07,SW,224,0.0,2.0,35,0.00,CLR,,0.00,WeatherDisplay:10.37,2013-02-19 00:10:00,
2013-02-18 19:15:00,24.9,2.8,30.07,WSW,238,0.0,0.0,38,0.00,CLR,,0.00,WeatherDisplay:10.37,2013-02-19 00:15:00,
2013-02-18 19:25:00,24.7,0.9,30.07,West,261,0.0,3.0,35,0.00,CLR,,0.00,WeatherDisplay:10.37,2013-02-19 00:25:00,
2013-02-18 19:30:00,24.6,-0.5,30.07,West,274,1.0,5.0,33,0.00,CLR,,0.00,WeatherDisplay:10.37,2013-02-19 00:30:00,
2013-02-18 19:35:00,24.6,2.0,30.08,WNW,292,0.0,3.0,37,0.00,CLR,,0.00,WeatherDisplay:10.37,2013-02-19 00:35:00,
2013-02-18 19:40:00,24.5,0.7,30.08,West,273,0.0,0.0,35,0.00,CLR,,0.00,WeatherDisplay:10.37,2013-02-19 00:40:00,
2013-02-18 19:45:00,24.3,1.1,30.08,SW,216,0.0,0.0,36,0.00,CLR,,0.00,WeatherDisplay:10.37,2013-02-19 00:45:00,
2013-02-18 19:55:00,24.0,1.5,30.08,SSW,200,0.0,0.0,37,0.00,CLR,,0.00,WeatherDisplay:10.37,2013-02-19 00:55:00,
2013-02-18 20:00:00,23.9,1.4,30.08,SSW,200,0.0,0.0,37,0.00,CLR,,0.00,WeatherDisplay:10.37,2013-02-19 01:00:00,
2013-02-18 20:05:00,23.6,2.2,30.08,SSW,200,0.0,0.0,39,0.00,CLR,,0.00,WeatherDisplay:10.37,2013-02-19 01:05:00,
2013-02-18 20:15:00,23.0,4.3,30.08,SSW,200,0.0,0.0,44,0.00,CLR,,0.00,WeatherDisplay:10.37,2013-02-19 01:15:00,
2013-02-18 20:20:00,22.6,5.4,30.08,SSW,200,0.0,0.0,47,0.00,CLR,,0.00,WeatherDisplay:10.37,2013-02-19 01:20:00,
2013-02-18 20:25:00,22.2,5.0,30.09,SSW,200,0.0,0.0,47,0.00,CLR,,0.00,WeatherDisplay:10.37,2013-02-19 01:25:00,
2013-02-18 20:30:00,22.0,4.3,30.09,South,178,0.0,0.0,46,0.00,CLR,,0.00,WeatherDisplay:10.37,2013-02-19 01:30:00,
2013-02-18 20:35:00,21.7,3.1,30.09,SE,143,0.0,0.0,44,0.00,CLR,,0.00,WeatherDisplay:10.37,2013-02-19 01:35:00,
2013-02-18 20:40:00,21.5,2.9,30.09,SE,133,0.0,1.0,44,0.00,CLR,,0.00,WeatherDisplay:10.37,2013-02-19 01:40:00,
2013-02-18 20:45:00,21.3,5.1,30.09,SE,133,0.0,0.0,49,0.00,CLR,,0.00,WeatherDisplay:10.37,2013-02-19 01:45:00,
2013-02-18 20:50:00,21.1,5.3,30.09,SE,133,0.0,0.0,50,0.00,CLR,,0.00,WeatherDisplay:10.37,2013-02-19 01:50:00,
2013-02-18 21:00:00,20.6,5.3,30.09,SE,133,0.0,0.0,51,0.00,CLR,,0.00,WeatherDisplay:10.37,2013-02-19 02:00:00,
2013-02-18 21:05:00,20.4,6.4,30.09,SE,133,0.0,0.0,54,0.00,CLR,,0.00,WeatherDisplay:10.37,2013-02-19 02:05:00,
2013-02-18 21:10:00,20.1,6.5,30.09,SE,133,0.0,0.0,55,0.00,CLR,,0.00,WeatherDisplay:10.37,2013-02-19 02:10:00,
2013-02-18 21:15:00,19.9,6.7,30.09,SE,133,0.0,0.0,56,0.00,CLR,,0.00,WeatherDisplay:10.37,2013-02-19 02:15:00,
2013-02-18 21:25:00,19.3,6.1,30.10,SE,133,0.0,0.0,56,0.00,CLR,,0.00,WeatherDisplay:10.37,2013-02-19 02:25:00,
2013-02-18 21:35:00,18.7,6.4,30.10,SE,133,0.0,0.0,58,0.00,CLR,,0.00,WeatherDisplay:10.37,2013-02-19 02:35:00,
2013-02-18 21:40:00,18.5,7.6,30.11,SE,133,0.0,0.0,62,0.00,CLR,,0.00,WeatherDisplay:10.37,2013-02-19 02:40:00,
2013-02-18 21:50:00,18.0,8.5,30.11,SE,133,0.0,0.0,66,0.00,CLR,,0.00,WeatherDisplay:10.37,2013-02-19 02:50:00,
2013-02-18 22:00:00,17.6,8.2,30.10,SE,133,0.0,0.0,66,0.00,CLR,,0.00,WeatherDisplay:10.37,2013-02-19 03:00:00,
2013-02-18 22:10:00,17.3,8.5,30.11,SE,133,0.0,0.0,68,0.00,CLR,,0.00,WeatherDisplay:10.37,2013-02-19 03:10:00,
2013-02-18 22:15:00,17.1,8.7,30.11,SE,133,0.0,0.0,69,0.00,CLR,,0.00,WeatherDisplay:10.37,2013-02-19 03:15:00,
2013-02-18 22:20:00,16.9,9.1,30.11,SE,133,0.0,0.0,71,0.00,CLR,,0.00,WeatherDisplay:10.37,2013-02-19 03:20:00,
2013-02-18 22:25:00,16.8,8.4,30.11,SE,133,0.0,0.0,69,0.00,CLR,,0.00,WeatherDisplay:10.37,2013-02-19 03:25:00,
2013-02-18 22:30:00,16.6,8.5,30.12,SE,133,0.0,0.0,70,0.00,CLR,,0.00,WeatherDisplay:10.37,2013-02-19 03:30:00,
2013-02-18 22:35:00,16.5,7.7,30.12,SE,133,0.0,0.0,68,0.00,CLR,,0.00,WeatherDisplay:10.37,2013-02-19 03:35:00,
2013-02-18 22:40:00,16.3,6.9,30.12,SE,133,0.0,0.0,66,0.00,CLR,,0.00,WeatherDisplay:10.37,2013-02-19 03:40:00,
2013-02-18 22:45:00,16.2,6.8,30.12,SE,133,0.0,0.0,66,0.00,CLR,,0.00,WeatherDisplay:10.37,2013-02-19 03:45:00,
2013-02-18 22:55:00,16.0,7.0,30.12,SE,133,0.0,0.0,67,0.00,CLR,,0.00,WeatherDisplay:10.37,2013-02-19 03:55:00,
2013-02-18 23:00:00,15.9,6.9,30.12,SE,133,0.0,0.0,67,0.00,CLR,,0.00,WeatherDisplay:10.37,2013-02-19 04:00:00,
2013-02-18 23:05:00,15.7,6.7,30.12,SE,133,0.0,0.0,67,0.00,CLR,,0.00,WeatherDisplay:10.37,2013-02-19 04:05:00,
2013-02-18 23:15:00,15.3,6.9,30.13,SE,133,0.0,0.0,69,0.00,CLR,,0.00,WeatherDisplay:10.37,2013-02-19 04:15:00,
2013-02-18 23:20:00,15.0,7.0,30.13,SE,133,0.0,0.0,70,0.00,CLR,,0.00,WeatherDisplay:10.37,2013-02-19 04:20:00,
2013-02-18 23:25:00,14.8,6.5,30.13,SE,133,0.0,0.0,69,0.00,CLR,,0.00,WeatherDisplay:10.37,2013-02-19 04:25:00,
2013-02-18 23:30:00,14.7,6.7,30.13,SE,133,0.0,0.0,70,0.00,CLR,,0.00,WeatherDisplay:10.37,2013-02-19 04:30:00,
2013-02-18 23:35:00,14.5,6.5,30.13,SE,133,0.0,0.0,70,0.00,CLR,,0.00,WeatherDisplay:10.37,2013-02-19 04:35:00,
2013-02-18 23:40:00,14.5,6.8,30.13,SE,133,0.0,0.0,71,0.00,CLR,,0.00,WeatherDisplay:10.37,2013-02-19 04:40:00,
2013-02-18 23:50:00,14.3,7.5,30.13,SE,133,0.0,0.0,74,0.00,CLR,,0.00,WeatherDisplay:10.37,2013-02-19 04:50:00,
2013-02-18 23:55:00,14.1,7.4,30.13,SE,133,0.0,0.0,74,0.00,CLR,,0.00,WeatherDisplay:10.37,2013-02-19 04:55:00,